Terminal Aerodrome Forecast
Issued by NWS

Home | Current Version | Previous Version | Text Only | Print | Product List | Glossary On
Versions: 1 2 3 4 5 6 7 8 9 10 11 12 13 14 15 16 17
000
FTUS41 KGYX 310520
TAFRKD
TAF
KRKD 310520Z 3106/0106 28003KT P6SM SKC
     FM310900 26002KT P6SM BKN100
     FM311000 26004KT P6SM SKC
     FM311700 25008G15KT P6SM FEW250
     FM312200 28003KT P6SM SKC
      AMD LTD TO CLD VIS AND WIND=

USA.gov is the U.S. government's official web portal to all federal, state and local government web resources and services.